Погода в Бекабаде

Узбекистан     40°13′03″N   69°15′56″E
темп.,
°C
ветер,
м/с
пор.,
м/с
влажн.,
%
обл.,
%
осадки,
мм/ч
давл.,
гПа
погр.,
м
3 марта, ср
ср323:00+11з3451100 0.0 1024112
02:00+9з3559100 0.0 1023197
05:00+8юв2275100 0.5 1023148
08:00+8в1176100 0.1 102387
11:00+11в2462100 0.3 1022571
14:00+14вюв324698 0.0 10201353
17:00+14юв334599 0.0 10201068
20:00+12ююв695899 0.0 1022435
4 марта, чт
чт423:00+10вюв6117165 0.0 1022365
02:00+9вюв713780 0.0 1021375
05:00+8вюв814790 0.0 1020418
08:00+8вюв10157533 0.0 1020508
11:00+13вюв11145467 0.0 1018719
14:00+15вюв91242100 0.0 1017771
17:00+15вюв5741100 0.0 1017537
20:00+13юв61050100 0.0 1020323
5 марта, пт
пт523:00+11зсз71071100 0.1 1023703
02:00+7сз81086100 1.3 1025659
05:00+5ссз7989100 5.5 1027605
08:00+5зсз2479100 0.8 1028412
11:00+8сз226183 0.8 1028851
14:00+10ссз214415 0.0 1025969
17:00+11ссв11417 0.0 1024732
20:00+9вюв11520 0.0 102522
6 марта, сб
сб623:00+10в6145217 0.0 1022829
02:00+10вюв122051100 0.0 1019731
05:00+10в122051100 0.0 1015668
08:00+10в122042100 0.0 1012697
11:00+14в91530100 0.0 10111014
14:00+14сз5431100 0.0 10111158
17:00+13сз5636100 0.0 1011844
20:00+11зсз2347100 0.0 1013163
7 марта, вс
вс723:00+8з2475100 1.3 1015237
02:00+7сз3479100 0.9 1015330
05:00+6сз2388100 2.3 1017298
08:00+7с2682100 1.6 1018808
11:00+10зюз4459100 1.9 10191070
14:00+10зюз3358100 0.0 1018992
17:00+10з3262100 0.1 1017701
20:00+8юз2271100 0.0 101864